WE3C Weather Reports


Display with metric or nautical units.
time (UTC)temp
F
wind
direction
speed
MPH
gust
MPH
rain 1hr
in
rain 24hr
in
rain mn
in
humidity
%
barometer
mb
20260508130013 49 248 0.0 0.0 0.00 0.00 0.00 65 1019.3
20260508124513 49 249 0.0 0.0 0.00 0.00 0.00 66 1019.3
20260508123013 48 360 0.0 0.0 0.00 0.00 0.00 70 1019.2
20260508121512 47 265 0.0 0.0 0.00 0.00 0.00 74 1019.2
20260508120012 46 360 0.0 0.0 0.00 0.00 0.00 77 1019.3
20260508114511 45 256 0.0 0.0 0.00 0.00 0.00 79 1019.3
20260508113011 44 248 0.0 0.0 0.00 0.00 0.00 81 1019.1
20260508111509 42 265 0.0 0.0 0.00 0.00 0.00 82 1018.9
20260508110007 41 261 0.0 0.0 0.00 0.00 0.00 82 1018.8
20260508104505 41 360 0.0 0.0 0.00 0.00 0.00 81 1018.5
20260508103005 40 275 0.0 0.0 0.00 0.00 0.00 81 1018.5
20260508101504 40 282 0.0 0.0 0.00 0.00 0.00 81 1018.5
20260508100002 40 282 0.0 0.0 0.00 0.00 0.00 81 1018.4
20260508094500 40 248 0.0 0.0 0.00 0.00 0.00 82 1018.0
20260508093058 41 360 0.0 0.0 0.00 0.00 0.00 82 1018.2
20260508091608 41 360 0.0 0.0 0.00 0.00 0.00 81 1018.1
20260508090054 42 360 0.0 0.0 0.00 0.00 0.00 81 1018.2
20260508084557 43 360 0.0 0.0 0.00 0.00 0.00 81 1018.1
20260508083054 43 360 0.0 0.0 0.00 0.00 0.00 81 1017.9
20260508081547 44 360 0.0 0.0 0.00 0.00 0.00 80 1017.8
20260508080105 44 300 0.0 0.0 0.00 0.00 0.00 80 1017.7
20260508074542 44 302 0.0 0.0 0.00 0.00 0.00 80 1017.5
20260508073048 45 315 0.0 0.0 0.00 0.00 0.00 79 1017.3
20260508071534 45 321 0.0 0.0 0.00 0.00 0.00 79 1017.3
20260508070033 46 360 0.0 0.0 0.00 0.00 0.00 77 1017.3
20260508064540 46 346 0.0 0.0 0.00 0.00 0.00 77 1017.1
20260508063028 47 360 0.0 0.0 0.00 0.00 0.00 76 1016.9
20260508061526 47 360 0.0 0.0 0.00 0.00 0.00 75 1017.0
20260508060020 48 360 0.0 0.0 0.00 0.00 0.00 73 1017.0
20260508054532 49 328 0.0 0.0 0.00 0.00 0.00 71 1016.7
20260508053014 49 329 0.0 0.0 0.00 0.00 0.00 70 1016.5
20260508051513 50 327 0.0 0.0 0.00 0.00 0.00 68 1016.3
20260508050010 51 308 0.0 0.0 0.00 0.00 0.00 65 1015.8
20260508044508 52 338 0.0 0.0 0.00 0.00 0.00 63 1015.4
20260508043005 52 347 0.0 0.0 0.00 0.00 0.00 66 1015.3
20260508041504 52 5 0.0 0.0 0.00 0.00 0.00 68 1015.4
20260508040112 52 360 0.0 0.0 0.00 0.00 0.00 66 1015.0
20260508034557 53 360 0.0 0.0 0.00 0.00 0.00 65 1014.9
20260508033056 53 267 0.0 0.0 0.00 0.00 0.00 64 1014.9
20260508033021 53 360 0.0 0.0 0.00 0.00 0.00 63 1014.9
20260508031556 53 229 0.0 0.0 0.00 0.00 0.00 65 1014.8
20260508030057 53 360 0.0 0.0 0.00 0.00 0.00 63 1014.7
20260508024554 53 225 0.0 0.0 0.00 0.00 0.00 57 1014.7
20260508023053 54 207 0.0 0.0 0.00 0.00 0.00 58 1014.7
20260508021553 54 210 0.0 0.0 0.00 0.00 0.00 57 1014.8
20260508020056 54 248 0.0 0.0 0.00 0.00 0.00 53 1014.7
20260508014552 54 320 0.0 0.0 0.00 0.00 0.00 51 1014.5
20260508013051 54 319 0.0 0.0 0.00 0.00 0.00 57 1014.2
20260508011551 54 318 0.0 0.0 0.00 0.00 0.00 53 1014.2
20260508010050 54 321 0.0 0.0 0.00 0.00 0.00 53 1014.1
20260508004553 54 321 0.0 0.0 0.00 0.00 0.00 54 1013.9
20260508003052 54 321 0.0 0.0 0.00 0.00 0.00 57 1013.9
20260508001549 54 321 0.0 0.0 0.00 0.00 0.00 57 1013.8
20260508000055 54 321 0.0 0.0 0.00 0.00 0.00 57 1013.7
20260507234554 55 321 0.0 0.0 0.00 0.00 0.00 54 1013.6
20260507233109 56 321 0.0 0.0 0.00 0.00 0.00 53 1013.4
20260507231548 57 321 0.0 0.0 0.00 0.00 0.00 52 1013.3
20260507230049 57 325 0.0 0.0 0.00 0.00 0.00 52 1013.5
20260507224548 58 328 0.0 0.0 0.00 0.00 0.00 48 1013.3
20260507223056 58 325 0.0 0.0 0.00 0.00 0.00 45 1013.2
20260507221544 59 328 0.0 0.0 0.00 0.00 0.00 45 1013.3
20260507220043 60 329 0.0 0.0 0.00 0.00 0.00 45 1013.4
20260507214544 59 355 0.0 0.0 0.00 0.00 0.00 43 1013.5
20260507213044 59 5 0.0 0.0 0.00 0.00 0.00 43 1013.3
20260507211549 60 13 0.0 0.0 0.00 0.00 0.00 44 1013.5
20260507204546 60 292 0.0 0.0 0.00 0.00 0.00 41 1013.5
20260507203040 60 346 0.0 0.0 0.00 0.00 0.00 41 1013.2
20260507201538 60 336 0.0 0.0 0.00 0.00 0.00 41 1013.4
20260507200049 61 298 0.0 0.0 0.00 0.00 0.00 39 1013.6
20260507194548 61 272 0.0 0.0 0.00 0.00 0.00 40 1013.7
20260507193034 61 299 0.0 0.0 0.00 0.00 0.00 41 1013.8
20260507191532 61 292 0.0 0.0 0.00 0.00 0.00 42 1014.0
20260507190043 61 327 0.0 0.0 0.00 0.00 0.00 37 1014.0
20260507184532 61 302 0.0 0.0 0.00 0.00 0.00 39 1014.2
20260507183021 61 348 0.0 0.0 0.00 0.00 0.00 38 1014.4
20260507181520 61 5 0.0 0.0 0.00 0.00 0.00 51 1014.5
20260507180020 60 284 0.0 0.0 0.00 0.00 0.00 42 1014.6
20260507174514 60 277 0.0 0.0 0.00 0.00 0.00 40 1014.8
20260507173034 61 338 0.0 0.0 0.00 0.00 0.00 44 1015.0
20260507171509 60 301 0.0 0.0 0.00 0.00 0.00 46 1015.3
20260507170016 59 318 0.0 0.0 0.00 0.00 0.00 45 1015.6
20260507164505 58 338 0.0 0.0 0.00 0.00 0.00 49 1015.8
20260507163002 56 34 0.0 0.0 0.00 0.00 0.00 48 1016.0
20260507161501 56 18 0.0 0.0 0.00 0.00 0.00 48 1016.1
20260507160105 57 321 0.0 0.0 0.00 0.00 0.00 49 1016.2
20260507154600 56 360 0.0 0.0 0.00 0.00 0.00 48 1016.4
20260507153059 56 344 0.0 0.0 0.00 0.00 0.00 55 1016.5
20260507151554 56 360 0.0 0.0 0.00 0.00 0.00 57 1016.8
20260507150052 54 37 0.0 0.0 0.00 0.00 0.00 61 1016.9
20260507144546 53 24 0.0 0.0 0.00 0.00 0.00 62 1017.0
20260507143046 52 360 0.0 0.0 0.00 0.00 0.00 64 1017.4
20260507141538 52 13 0.0 0.0 0.00 0.00 0.00 63 1017.3
20260507140021 50 350 0.0 0.0 0.00 0.00 0.00 71 1017.4
20260507134517 50 360 0.0 0.0 0.00 0.00 0.00 74 1017.6
20260507133019 49 346 0.0 0.0 0.00 0.00 0.00 77 1017.6
20260507131518 48 5 0.0 0.0 0.00 0.00 0.00 78 1017.4